カタログに戻る

IRIDIUM 137

運用中通信PO
NORAD 43076·PAYLOAD·🇺🇸 United States

打ち上げ Dec 23, 2017 から Vandenberg Space Force Base

Loading…

次のパス (今後24時間)

TLE

最新Source: CelesTrak SupGP

元期: Sep 14, 2026, 21:09 UTC

1 43076C 17083G   26257.88159722  .00002961  00000+0  10586-2 0  2579
2 43076  86.3918 284.6667 0001965  98.1822   7.2462 14.34213968    10

AllMySatでIRIDIUM 137をリアルタイム追跡

Download on the App Store